[[{"header":{"parameterUnit":"m.s-1","parameterCategory":2,"la1":30.2991,"la2":30.254,"lo1":-89.0895,"lo2":-89.0444,"dy":0.0017,"dx":0.0017,"nx":28,"ny":28,"refTime":"2024-07-04T03:00:00:Z","depth":"0","parameterNumber":2,"parameterNumberName":"U-component_of_CURRENTS"},"data":[0,0,0,0,0,0,0,0,0,0,0,0,0,0,0,0,0,0,0,0,0,0,0,0,0,0,0,0,0,0,0,0,0,0,0,0,0,0,0,0,0,0,0,0,0,0,0,0,0,0,0,0,0,0,0,0,0,0,-0.313,-0.313,0,-0.3115,-0.3114,-0.3114,-0.302,-0.3018,-0.3017,-0.3015,-0.2829,-0.2826,-0.2822,0,0,0,0,0,0,0,0,0,0,0,0,0,-0.2816,-0.2824,-0.313,-0.313,-0.3131,-0.3115,-0.3114,-0.3113,-0.302,-0.3018,-0.3016,-0.3014,-0.283,-0.2826,-0.2822,0,0,0,0,0,0,0,0,0,0,0,0,0,-0.2887,-0.2826,-0.313,-0.3087,-0.3083,-0.3115,-0.3114,-0.3113,-0.3021,-0.3018,-0.3016,-0.3013,-0.2831,-0.2826,-0.2821,-0.2842,0,0,-0.2806,-0.2804,0,0,0,0,0,0,0,0,-0.2884,-0.2898,-0.3093,-0.309,-0.3086,-0.3072,-0.2936,-0.3016,-0.3022,-0.3038,-0.3015,-0.3012,-0.29,-0.2889,-0.2886,-0.2833,-0.2825,-0.2806,-0.2803,-0.28,-0.2799,0,0,0,0,0,0,0,-0.2879,-0.2897,-0.3118,-0.3094,-0.3089,-0.2979,-0.2988,-0.2949,-0.2976,-0.3037,-0.3031,-0.304,-0.2896,-0.2892,-0.2881,-0.2823,-0.2806,-0.2801,-0.2798,-0.2796,-0.2719,-0.2719,0,0,0,0,0,0,-0.2912,-0.2895,-0.3119,-0.3118,-0.2983,-0.2988,-0.2997,-0.3074,-0.298,-0.2966,-0.3042,-0.3036,-0.2901,-0.2887,-0.2874,-0.2835,-0.28,-0.2796,-0.2793,-0.2718,-0.2719,-0.272,0,0,0,0,0,0,-0.2906,-0.2935,-0.3119,-0.3005,-0.3021,-0.2999,-0.3084,-0.3075,-0.3057,-0.2987,-0.2968,-0.3031,-0.2899,-0.2881,-0.2827,-0.2828,-0.2794,-0.2789,-0.2716,-0.2718,-0.2719,-0.2793,0,0,0,0,0,0,-0.2898,-0.2934,-0.2978,-0.3011,-0.303,-0.315,-0.3087,-0.3077,-0.307,-0.3061,-0.2972,-0.2953,-0.2895,-0.2836,-0.2822,-0.2821,-0.2785,-0.2715,-0.2717,-0.2719,-0.2789,-0.2796,-0.2803,0,0,0,0,0,-0.2888,-0.2976,-0.2982,-0.3007,-0.3102,-0.3152,-0.3152,-0.3117,-0.3072,-0.3085,-0.3008,-0.2955,-0.2837,-0.2832,-0.2817,-0.2813,-0.2714,-0.2717,-0.2719,-0.2786,-0.2795,-0.2802,0,0,0,0,0,0,-0.2823,-0.2976,-0.2983,-0.3102,-0.3127,-0.3139,-0.3145,-0.3123,-0.3077,-0.3052,-0.2965,-0.2943,-0.2904,-0.2855,-0.2852,-0.2799,-0.2769,-0.2768,-0.2825,-0.2833,-0.284,-0.2829,-0.2781,0,0,0,0,0,-0.2846,-0.2971,-0.3045,-0.3124,-0.315,-0.3144,-0.315,-0.314,-0.3116,-0.3092,-0.3029,-0.2959,-0.2908,-0.2865,-0.2827,-0.2792,-0.2733,-0.2782,-0.2789,-0.2795,-0.2778,-0.2748,-0.2751,-0.2727,-0.2727,-0.2727,0,0,-0.2813,-0.2934,-0.2979,-0.312,-0.3131,-0.3161,-0.3139,-0.3171,-0.316,-0.3079,-0.3028,-0.299,-0.291,-0.2875,-0.2851,-0.2824,-0.2762,-0.2797,-0.2803,-0.2782,-0.2751,-0.2753,-0.2755,-0.2728,-0.2728,-0.2728,0,0,-0.2822,-0.2947,-0.3032,-0.309,-0.3164,-0.3173,-0.3187,-0.3209,-0.3185,-0.3163,-0.3093,-0.3043,-0.2978,-0.291,-0.2866,-0.2886,-0.2815,-0.2891,-0.2893,-0.2867,-0.2868,-0.2868,-0.2757,-0.2747,-0.2877,-0.2877,-0.2877,0,-0.2761,-0.2913,-0.3039,-0.3127,-0.3149,-0.318,-0.3199,-0.3204,-0.319,-0.3159,-0.3154,-0.3048,-0.2984,-0.2907,-0.2912,-0.2896,-0.2857,-0.2867,-0.2875,-0.2874,-0.2873,-0.2759,-0.2747,-0.2881,-0.288,-0.288,-0.2879,0,-0.2812,-0.2925,-0.2977,-0.3111,-0.3151,-0.3191,-0.3227,-0.3232,-0.3211,-0.3192,-0.3146,-0.3087,-0.3012,-0.3,-0.2953,-0.2916,-0.2878,-0.2903,-0.2853,-0.288,-0.2757,-0.2743,-0.2886,-0.2885,-0.2884,-0.2883,0,0,-0.2684,-0.2956,-0.2963,-0.303,-0.315,-0.3188,-0.3194,-0.3196,-0.3182,-0.3174,-0.313,-0.3061,-0.3047,-0.2998,-0.2956,-0.2922,-0.2865,-0.2915,-0.2912,-0.2799,-0.2756,-0.2571,-0.2536,-0.2919,-0.2918,-0.2917,-0.2657,0,-0.2649,-0.2825,-0.2947,-0.302,-0.3096,-0.3153,-0.3162,-0.3174,-0.3171,-0.3153,-0.31,-0.3065,-0.3044,-0.3023,-0.2989,-0.2909,-0.2841,-0.2929,-0.2749,-0.274,-0.2571,-0.2519,-0.2474,-0.2227,-0.2643,-0.264,-0.2639,0,-0.2631,-0.2775,-0.287,-0.3037,-0.3059,-0.3086,-0.3114,-0.3132,-0.3129,-0.3131,-0.3102,-0.3081,-0.2998,-0.3018,-0.2862,-0.2934,-0.284,-0.2779,-0.2769,-0.2558,-0.2531,-0.2275,-0.2186,-0.2191,-0.2617,-0.2618,-0.262,0,-0.2512,-0.2704,-0.2785,-0.2844,-0.3021,-0.3029,-0.3071,-0.31,-0.31,-0.3118,-0.3087,-0.3055,-0.2963,-0.2929,-0.2752,-0.2838,-0.2566,-0.2666,-0.2389,-0.2372,-0.227,-0.2245,-0.2158,-0.2554,-0.2554,-0.2555,-0.2556,0,-0.2469,-0.2531,-0.2747,-0.2807,-0.2857,-0.2987,-0.3004,-0.3046,-0.3073,-0.2998,-0.3062,-0.2939,-0.2946,-0.2779,-0.2724,-0.2442,-0.2521,-0.2343,-0.2293,-0.2287,-0.2268,-0.2216,-0.2272,-0.2545,-0.2547,-0.2549,-0.2551,0,-0.2349,-0.2499,-0.2612,-0.2788,-0.2831,-0.2864,-0.2967,-0.2961,-0.301,-0.2907,-0.2897,-0.281,-0.2584,-0.2516,-0.2357,-0.2296,-0.2089,-0.2016,-0.195,-0.1897,-0.1717,-0.1779,-0.1591,-0.1544,-0.1727,-0.1721,-0.1716,0,-0.2318,-0.2378,-0.2566,-0.2604,-0.2682,-0.2766,-0.2789,-0.2908,-0.2869,-0.2744,-0.2626,-0.2429,-0.2167,-0.1869,-0.1814,-0.1657,-0.1735,-0.1507,-0.1673,-0.164,-0.1676,-0.176,-0.1746,-0.1552,-0.1546,-0.1541,-0.1537,0,-0.222,-0.2279,-0.236,-0.2456,-0.2504,-0.2566,-0.2589,-0.2548,-0.2565,-0.2435,-0.2114,-0.1911,-0.1644,-0.1436,-0.1291,-0.1236,-0.152,-0.1394,-0.1422,-0.1548,-0.1576,-0.1529,-0.1741,-0.1492,-0.1497,-0.15,-0.1503,-0.1504,-0.209,-0.2098,-0.2184,-0.2254,-0.2306,-0.2265,-0.2186,-0.2157,-0.2007,-0.1705,-0.1612,-0.1207,-0.1148,-0.0948,-0.0915,-0.0961,-0.1085,-0.1025,-0.1096,-0.1176,-0.1159,-0.1197,-0.0868,-0.0869,-0.087,-0.087,-0.0871,0,-0.1904,-0.1919,-0.1967,-0.201,-0.1956,-0.2062,-0.1959,-0.1796,-0.1479,-0.1259,-0.0943,-0.0563,-0.0516,-0.0583,-0.0748,-0.0744,-0.083,-0.0751,-0.0948,-0.0945,-0.1016,-0.1039,-0.0658,-0.0658,-0.0658,-0.0659,-0.0659,-0.0659,-0.18,-0.1749,-0.1786,-0.1647,-0.1643,-0.1436,-0.1302,-0.1095,-0.0891,-0.0409,-0.0106,0.0078,-0.0077,-0.0505,-0.0721,-0.0722,-0.0788,-0.073,-0.0754,-0.0924,-0.0961,-0.0996,-0.1031,-0.0654,-0.0654,-0.0695,-0.0695,-0.0696]},{"header":{"parameterUnit":"m.s-1","parameterCategory":2,"la1":30.2991,"la2":30.254,"lo1":-89.0895,"lo2":-89.0444,"dy":0.0017,"dx":0.0017,"nx":28,"ny":28,"refTime":"2024-07-04T03:00:00:Z","depth":"0","parameterNumber":3,"parameterNumberName":"V-component_of_CURRENTS"},"data":[0,0,0,0,0,0,0,0,0,0,0,0,0,0,0,0,0,0,0,0,0,0,0,0,0,0,0,0,0,0,0,0,0,0,0,0,0,0,0,0,0,0,0,0,0,0,0,0,0,0,0,0,0,0,0,0,0,0,-0.0643,-0.0643,0,-0.0557,-0.0556,-0.0554,-0.0466,-0.0465,-0.0464,-0.0463,-0.0303,-0.0299,-0.0296,0,0,0,0,0,0,0,0,0,0,0,0,0,-0.0582,-0.0584,-0.0643,-0.0643,-0.0642,-0.0557,-0.0556,-0.0554,-0.0466,-0.0465,-0.0464,-0.0463,-0.0304,-0.03,-0.0296,0,0,0,0,0,0,0,0,0,0,0,0,0,-0.056,-0.0585,-0.0643,-0.0591,-0.0585,-0.0558,-0.0556,-0.0554,-0.0466,-0.0465,-0.0464,-0.0463,-0.0305,-0.03,-0.0295,-0.0289,0,0,-0.0279,-0.0277,0,0,0,0,0,0,0,0,-0.0562,-0.0562,-0.0599,-0.0594,-0.0588,-0.0524,-0.0475,-0.0463,-0.0467,-0.0507,-0.0463,-0.0462,-0.0373,-0.0363,-0.0345,-0.0281,-0.0274,-0.0279,-0.0276,-0.0273,-0.0272,0,0,0,0,0,0,0,-0.0564,-0.0565,-0.0605,-0.0598,-0.0592,-0.052,-0.0516,-0.0472,-0.0444,-0.0504,-0.0498,-0.0495,-0.0369,-0.035,-0.034,-0.0272,-0.0279,-0.0274,-0.0271,-0.0269,-0.0141,-0.0141,0,0,0,0,0,0,-0.0592,-0.0568,-0.0608,-0.0603,-0.0576,-0.0523,-0.0519,-0.0543,-0.0446,-0.0432,-0.0496,-0.0491,-0.036,-0.0346,-0.0334,-0.0319,-0.0273,-0.0268,-0.0265,-0.0142,-0.0141,-0.0141,0,0,0,0,0,0,-0.0592,-0.0598,-0.0612,-0.0584,-0.0581,-0.0527,-0.0554,-0.0542,-0.0519,-0.0442,-0.0425,-0.0486,-0.0358,-0.0341,-0.03,-0.0312,-0.0266,-0.0261,-0.0142,-0.0142,-0.0141,-0.0289,0,0,0,0,0,0,-0.0591,-0.0599,-0.0622,-0.0587,-0.0584,-0.0616,-0.0555,-0.0541,-0.0522,-0.0514,-0.0428,-0.0412,-0.0356,-0.0308,-0.0294,-0.0304,-0.0257,-0.0142,-0.0142,-0.0141,-0.0284,-0.0293,-0.0301,0,0,0,0,0,-0.0589,-0.0645,-0.0625,-0.0629,-0.0621,-0.0618,-0.061,-0.0561,-0.0523,-0.0531,-0.0464,-0.0414,-0.0294,-0.0305,-0.0288,-0.0296,-0.0142,-0.0142,-0.0141,-0.028,-0.0292,-0.0301,0,0,0,0,0,0,-0.0622,-0.064,-0.0617,-0.0672,-0.065,-0.0604,-0.0609,-0.057,-0.0523,-0.0507,-0.0423,-0.0404,-0.0364,-0.0308,-0.0322,-0.0252,-0.0205,-0.0201,-0.0316,-0.0325,-0.0334,-0.0388,-0.0253,0,0,0,0,0,-0.0645,-0.0695,-0.0675,-0.0713,-0.0709,-0.0655,-0.0644,-0.0612,-0.0568,-0.0545,-0.0483,-0.0408,-0.035,-0.0324,-0.0261,-0.024,-0.0142,-0.0226,-0.0235,-0.0243,-0.0273,-0.0134,-0.0133,-0.0139,-0.0139,-0.0139,0,0,-0.0659,-0.0681,-0.0701,-0.0723,-0.0698,-0.0726,-0.0645,-0.0642,-0.0652,-0.0536,-0.0523,-0.0437,-0.0347,-0.0316,-0.0292,-0.0274,-0.018,-0.0242,-0.025,-0.0276,-0.0133,-0.0132,-0.0132,-0.0139,-0.0139,-0.0139,0,0,-0.0743,-0.0739,-0.0814,-0.0816,-0.0808,-0.0773,-0.0778,-0.0734,-0.0699,-0.0678,-0.0584,-0.0516,-0.0438,-0.0376,-0.0335,-0.0353,-0.0225,-0.0319,-0.0418,-0.0283,-0.0282,-0.028,-0.0122,-0.0105,-0.0331,-0.0331,-0.0331,0,-0.0755,-0.0859,-0.0826,-0.0899,-0.0904,-0.0807,-0.0862,-0.0825,-0.0767,-0.073,-0.0694,-0.054,-0.0471,-0.0416,-0.0432,-0.0377,-0.0267,-0.0395,-0.0297,-0.0293,-0.0288,-0.0127,-0.0106,-0.0338,-0.0337,-0.0336,-0.0336,0,-0.0892,-0.0973,-0.1011,-0.1074,-0.1065,-0.1096,-0.104,-0.1008,-0.0938,-0.0879,-0.0793,-0.0686,-0.0595,-0.0555,-0.0514,-0.0447,-0.0365,-0.0319,-0.0282,-0.0297,-0.0125,-0.0101,-0.0348,-0.0345,-0.0343,-0.0342,0,0,-0.0921,-0.1083,-0.1095,-0.1152,-0.1159,-0.1159,-0.1165,-0.1123,-0.1076,-0.1009,-0.0935,-0.0867,-0.0772,-0.072,-0.0625,-0.0531,-0.0403,-0.044,-0.0429,-0.0304,-0.0075,-0.0024,0.0009,-0.0334,-0.0332,-0.033,0.0044,0,-0.1029,-0.1238,-0.1254,-0.1369,-0.145,-0.136,-0.1357,-0.129,-0.1183,-0.1078,-0.0953,-0.084,-0.0844,-0.0756,-0.0691,-0.0435,-0.0352,-0.0508,-0.0062,-0.0049,-0.0019,0.0033,0.0042,0.0374,0.0068,0.0073,0.0076,0,-0.1151,-0.128,-0.1461,-0.1528,-0.1536,-0.1562,-0.1473,-0.1453,-0.1289,-0.1194,-0.1087,-0.0929,-0.0791,-0.0763,-0.0452,-0.0543,-0.0365,-0.0188,-0.0168,-0.0065,0.0045,0.0338,0.0431,0.052,0.0114,0.0111,0.0108,0,-0.1217,-0.1393,-0.1546,-0.1582,-0.1645,-0.165,-0.1625,-0.1495,-0.1389,-0.1236,-0.1065,-0.0944,-0.0731,-0.0577,-0.0268,-0.0331,0.0135,0.0119,0.0322,0.0331,0.045,0.0464,0.0657,0.0307,0.0307,0.0305,0.0304,0,-0.1341,-0.1445,-0.1597,-0.1682,-0.1741,-0.1738,-0.1689,-0.1633,-0.1442,-0.1233,-0.1125,-0.0865,-0.0662,-0.0356,-0.0213,0.0153,0.0181,0.0315,0.0426,0.0404,0.0408,0.0579,0.0597,0.032,0.0317,0.0314,0.0311,0,-0.1398,-0.1531,-0.1681,-0.1789,-0.1802,-0.183,-0.1714,-0.1615,-0.146,-0.1159,-0.1073,-0.0714,-0.0336,-0.0123,0.0264,0.0337,0.0705,0.072,0.0681,0.0775,0.0954,0.0964,0.1292,0.1406,0.0987,0.099,0.0993,0,-0.1443,-0.1567,-0.1733,-0.177,-0.1823,-0.1837,-0.1777,-0.1658,-0.1477,-0.1005,-0.0801,-0.0371,0.0015,0.0537,0.0668,0.0922,0.0962,0.1093,0.0917,0.0973,0.1069,0.1055,0.1125,0.1062,0.1065,0.1067,0.107,0,-0.1471,-0.1553,-0.1659,-0.1777,-0.1781,-0.1732,-0.1623,-0.148,-0.12,-0.0906,-0.0368,-0.0017,0.0482,0.0802,0.1052,0.1169,0.1146,0.1153,0.1244,0.1153,0.1125,0.1287,0.082,0.1093,0.109,0.1089,0.1087,0.1087,-0.1409,-0.148,-0.1618,-0.1699,-0.1696,-0.1562,-0.1423,-0.1227,-0.0913,-0.039,-0.0094,0.0438,0.0883,0.1233,0.1329,0.1451,0.14,0.1467,0.1492,0.1486,0.1515,0.1083,0.1434,0.1434,0.1434,0.1433,0.1433,0,-0.1299,-0.1397,-0.149,-0.1534,-0.1454,-0.1486,-0.1228,-0.1007,-0.0605,-0.0235,0.0227,0.0876,0.1236,0.1492,0.168,0.1766,0.1765,0.1815,0.1783,0.1853,0.1527,0.1439,0.1766,0.1765,0.1765,0.1765,0.1765,0.1765,-0.1242,-0.1308,-0.1393,-0.1274,-0.1252,-0.0999,-0.0815,-0.0549,-0.0266,0.0289,0.067,0.1008,0.1473,0.1795,0.1991,0.2025,0.2165,0.2119,0.2236,0.1945,0.1911,0.188,0.18,0.2197,0.2198,0.2539,0.2542,0.2544]}],[{"header":{"parameterUnit":"m.s-1","parameterCategory":2,"la1":30.2991,"la2":30.254,"lo1":-89.0895,"lo2":-89.0444,"dy":0.0017,"dx":0.0017,"nx":28,"ny":28,"refTime":"2024-07-04T03:00:00:Z","depth":"2","parameterNumber":2,"parameterNumberName":"U-component_of_CURRENTS"},"data":[0,0,0,0,0,0,0,0,0,0,0,0,0,0,0,0,0,0,0,0,0,0,0,0,0,0,0,0,0,0,0,0,0,0,0,0,0,0,0,0,0,0,0,0,0,0,0,0,0,0,0,0,0,0,0,0,0,0,-0.2314,-0.2315,0,-0.2332,-0.2332,-0.2332,-0.2303,-0.2303,-0.2302,-0.2301,-0.2403,-0.2406,-0.2409,0,0,0,0,0,0,0,0,0,0,0,0,0,-0.2286,-0.2286,-0.2314,-0.2315,-0.2316,-0.2332,-0.2332,-0.2332,-0.2303,-0.2303,-0.2302,-0.2301,-0.2401,-0.2405,-0.2409,0,0,0,0,0,0,0,0,0,0,0,0,0,-0.2297,-0.2286,-0.2314,-0.2307,-0.2306,-0.2332,-0.2332,-0.2332,-0.2303,-0.2302,-0.2302,-0.2301,-0.24,-0.2405,-0.241,-0.2458,0,0,-0.2425,-0.2427,0,0,0,0,0,0,0,0,-0.2296,-0.2297,-0.2307,-0.2307,-0.2307,-0.2318,-0.2359,-0.2379,-0.2304,-0.23,-0.2301,-0.23,-0.2386,-0.2391,-0.239,-0.2462,-0.2467,-0.2425,-0.2428,-0.243,-0.2431,0,0,0,0,0,0,0,-0.2295,-0.2296,-0.2317,-0.2308,-0.2308,-0.2313,-0.2312,-0.2362,-0.2346,-0.23,-0.2299,-0.2308,-0.2385,-0.2385,-0.2392,-0.2468,-0.2425,-0.2429,-0.2432,-0.2434,-0.2546,-0.2546,0,0,0,0,0,0,-0.2301,-0.2296,-0.2317,-0.2318,-0.2304,-0.2314,-0.2314,-0.2312,-0.2343,-0.2348,-0.2309,-0.2307,-0.2377,-0.2386,-0.2396,-0.2435,-0.243,-0.2435,-0.2437,-0.2546,-0.2546,-0.2546,0,0,0,0,0,0,-0.23,-0.2302,-0.2316,-0.2311,-0.2314,-0.2316,-0.2314,-0.2313,-0.2317,-0.235,-0.2355,-0.2315,-0.2377,-0.2389,-0.2434,-0.244,-0.2437,-0.2441,-0.2546,-0.2546,-0.2546,-0.2527,0,0,0,0,0,0,-0.2299,-0.2301,-0.23,-0.2311,-0.2314,-0.2326,-0.2315,-0.2314,-0.2326,-0.2323,-0.2358,-0.2365,-0.2377,-0.2427,-0.2439,-0.2446,-0.2445,-0.2546,-0.2546,-0.2546,-0.2528,-0.2526,-0.2525,0,0,0,0,0,-0.2298,-0.23,-0.23,-0.2302,-0.2312,-0.2326,-0.2327,-0.2324,-0.2327,-0.2325,-0.2349,-0.2364,-0.2435,-0.2431,-0.2446,-0.2454,-0.2546,-0.2546,-0.2546,-0.2528,-0.2527,-0.2525,0,0,0,0,0,0,-0.2289,-0.2298,-0.2298,-0.2303,-0.2312,-0.2323,-0.2327,-0.2333,-0.2349,-0.2354,-0.238,-0.2389,-0.2419,-0.2448,-0.2442,-0.2484,-0.2489,-0.2492,-0.247,-0.2469,-0.2468,-0.2473,-0.2449,0,0,0,0,0,-0.2289,-0.2288,-0.2302,-0.2306,-0.2313,-0.2325,-0.2332,-0.2334,-0.2353,-0.2358,-0.2382,-0.241,-0.2431,-0.2459,-0.2477,-0.2526,-0.2526,-0.2536,-0.2535,-0.2534,-0.2546,-0.2533,-0.2532,-0.2547,-0.2547,-0.2547,0,0,-0.2291,-0.2294,-0.2296,-0.2304,-0.2313,-0.2332,-0.2325,-0.234,-0.2359,-0.2373,-0.2404,-0.2409,-0.244,-0.2465,-0.2484,-0.2495,-0.2527,-0.2534,-0.2533,-0.2546,-0.2533,-0.2532,-0.253,-0.2547,-0.2547,-0.2547,0,0,-0.2294,-0.2295,-0.2297,-0.2311,-0.2328,-0.2339,-0.2348,-0.2365,-0.2369,-0.2407,-0.2403,-0.2411,-0.2471,-0.247,-0.2486,-0.2501,-0.2511,-0.251,-0.2528,-0.2515,-0.2514,-0.2513,-0.2498,-0.2496,-0.2523,-0.2523,-0.2523,0,-0.2292,-0.2299,-0.2301,-0.2314,-0.2335,-0.2348,-0.2369,-0.2383,-0.241,-0.2424,-0.2417,-0.2456,-0.2469,-0.2496,-0.2486,-0.2499,-0.2496,-0.2529,-0.2513,-0.2512,-0.2511,-0.2496,-0.2494,-0.2522,-0.2522,-0.2522,-0.2522,0,-0.23,-0.2313,-0.232,-0.234,-0.2361,-0.2382,-0.241,-0.2429,-0.2445,-0.2457,-0.2476,-0.2475,-0.2499,-0.2492,-0.2501,-0.2502,-0.2502,-0.2499,-0.2514,-0.2508,-0.2493,-0.2491,-0.2521,-0.2521,-0.2521,-0.2522,0,0,-0.2266,-0.2315,-0.2315,-0.2336,-0.2379,-0.2396,-0.2441,-0.2475,-0.2504,-0.251,-0.2534,-0.2536,-0.2524,-0.2539,-0.253,-0.2519,-0.2491,-0.2513,-0.2513,-0.2495,-0.2464,-0.2347,-0.2334,-0.2486,-0.2486,-0.2486,-0.2452,0,-0.2266,-0.2296,-0.2326,-0.237,-0.2392,-0.2436,-0.2479,-0.2516,-0.254,-0.2563,-0.2554,-0.2566,-0.2548,-0.2546,-0.2533,-0.2501,-0.2487,-0.2501,-0.2477,-0.2476,-0.2369,-0.2328,-0.2133,-0.2075,-0.245,-0.2449,-0.2449,0,-0.2248,-0.2277,-0.2314,-0.2389,-0.2405,-0.2436,-0.2504,-0.2542,-0.2586,-0.2607,-0.2617,-0.2613,-0.2599,-0.2574,-0.2531,-0.2543,-0.2508,-0.2478,-0.2476,-0.2376,-0.2355,-0.2145,-0.2058,-0.2446,-0.2446,-0.2446,-0.2446,0,-0.2198,-0.2264,-0.2293,-0.2318,-0.2405,-0.2434,-0.2479,-0.2541,-0.2573,-0.2617,-0.2639,-0.2636,-0.2622,-0.2585,-0.253,-0.2533,-0.2474,-0.2468,-0.2333,-0.2325,-0.2158,-0.2135,-0.2434,-0.2435,-0.2435,-0.2435,-0.2435,0,-0.2173,-0.2195,-0.227,-0.2287,-0.2332,-0.2404,-0.2453,-0.2504,-0.2565,-0.2599,-0.264,-0.2651,-0.2623,-0.2592,-0.2542,-0.2422,-0.2483,-0.2323,-0.23,-0.2144,-0.2121,-0.2451,-0.2453,-0.2433,-0.2434,-0.2434,-0.2434,0,-0.2101,-0.2154,-0.2188,-0.2277,-0.2302,-0.2326,-0.242,-0.2441,-0.2534,-0.2575,-0.2588,-0.2643,-0.2583,-0.2545,-0.2475,-0.2415,-0.2328,-0.2277,-0.2093,-0.2046,-0.2188,-0.219,-0.2109,-0.2104,-0.21,-0.2097,-0.2094,0,-0.2069,-0.2075,-0.2149,-0.2158,-0.2191,-0.2246,-0.2269,-0.2387,-0.2404,-0.2562,-0.2545,-0.2554,-0.2505,-0.2369,-0.2221,-0.2082,-0.2206,-0.1881,-0.1833,-0.2165,-0.2152,-0.216,-0.2167,-0.161,-0.1604,-0.1598,-0.1594,0,-0.2001,-0.2017,-0.2042,-0.2046,-0.2064,-0.2089,-0.2131,-0.2152,-0.2292,-0.2352,-0.2414,-0.2411,-0.2296,-0.2039,-0.1867,-0.1779,-0.188,-0.1765,-0.2152,-0.1719,-0.1689,-0.1679,-0.1703,-0.1547,-0.1552,-0.1555,-0.1558,-0.156,-0.1931,-0.1915,-0.1919,-0.1909,-0.1919,-0.1874,-0.1845,-0.1902,-0.1923,-0.1956,-0.2129,-0.2044,-0.2039,-0.1592,-0.1492,-0.1379,-0.1504,-0.1456,-0.1474,-0.1498,-0.1442,-0.1406,-0.1201,-0.1204,-0.1206,-0.1208,-0.121,0,-0.1817,-0.1791,-0.1777,-0.1726,-0.1633,-0.171,-0.1698,-0.1631,-0.1591,-0.1643,-0.1666,-0.1487,-0.128,-0.1258,-0.098,-0.0947,-0.0963,-0.0935,-0.0963,-0.1007,-0.1048,-0.0973,-0.0606,-0.0605,-0.0603,-0.0602,0,0,-0.1754,-0.1678,-0.1652,-0.1441,-0.1398,-0.1245,-0.1207,-0.1168,-0.1148,-0.1079,-0.1033,-0.1116,-0.1173,-0.0876,-0.0824,-0.0664,-0.0832,-0.062,-0.1094,-0.1167,-0.1206,-0.1325,-0.1255,0,0,0,0,0]},{"header":{"parameterUnit":"m.s-1","parameterCategory":2,"la1":30.2991,"la2":30.254,"lo1":-89.0895,"lo2":-89.0444,"dy":0.0017,"dx":0.0017,"nx":28,"ny":28,"refTime":"2024-07-04T03:00:00:Z","depth":"2","parameterNumber":3,"parameterNumberName":"V-component_of_CURRENTS"},"data":[0,0,0,0,0,0,0,0,0,0,0,0,0,0,0,0,0,0,0,0,0,0,0,0,0,0,0,0,0,0,0,0,0,0,0,0,0,0,0,0,0,0,0,0,0,0,0,0,0,0,0,0,0,0,0,0,0,0,-0.0304,-0.0303,0,-0.0222,-0.0221,-0.022,-0.0162,-0.0161,-0.0161,-0.0161,-0.0026,-0.0023,-0.002,0,0,0,0,0,0,0,0,0,0,0,0,0,-0.0371,-0.0371,-0.0304,-0.0303,-0.0302,-0.0222,-0.022,-0.0219,-0.0162,-0.0161,-0.0161,-0.016,-0.0027,-0.0024,-0.002,0,0,0,0,0,0,0,0,0,0,0,0,0,-0.032,-0.037,-0.0304,-0.0264,-0.026,-0.0222,-0.022,-0.0219,-0.0162,-0.0161,-0.0161,-0.016,-0.0029,-0.0024,-0.0019,-0.0001,0,0,-0.0005,-0.0003,0,0,0,0,0,0,0,0,-0.0324,-0.0318,-0.0271,-0.0267,-0.0262,-0.0202,-0.0195,-0.0144,-0.0162,-0.0199,-0.0161,-0.016,-0.0081,-0.0072,-0.0058,0.0005,0.0011,-0.0004,-0.0001,0.0001,0.0002,0,0,0,0,0,0,0,-0.0327,-0.0321,-0.0271,-0.027,-0.0265,-0.0236,-0.0229,-0.0185,-0.0143,-0.0195,-0.0191,-0.0183,-0.0078,-0.0062,-0.0054,0.0013,-0.0004,-0.0,0.0003,0.0005,0.0129,0.013,0,0,0,0,0,0,-0.0341,-0.0325,-0.0274,-0.0268,-0.0293,-0.0236,-0.0227,-0.0221,-0.0144,-0.0132,-0.0184,-0.0181,-0.0071,-0.006,-0.0049,-0.0006,0.0001,0.0005,0.0008,0.0129,0.0129,0.013,0,0,0,0,0,0,-0.0343,-0.0338,-0.0277,-0.0295,-0.0285,-0.0236,-0.0229,-0.022,-0.0203,-0.0136,-0.0123,-0.0176,-0.007,-0.0056,-0.0012,-0.0001,0.0007,0.0012,0.0128,0.0129,0.013,0.0068,0,0,0,0,0,0,-0.0345,-0.0339,-0.0343,-0.0296,-0.0285,-0.0259,-0.0229,-0.0219,-0.0199,-0.0195,-0.0125,-0.0112,-0.0068,-0.0019,-0.0007,0.0005,0.0016,0.0128,0.0129,0.0129,0.0069,0.0066,0.0064,0,0,0,0,0,-0.0348,-0.0356,-0.0343,-0.0337,-0.0291,-0.0259,-0.0251,-0.0213,-0.02,-0.0195,-0.0149,-0.0114,-0.0005,-0.0016,-0.0001,0.0013,0.0127,0.0128,0.0129,0.0071,0.0067,0.0064,0,0,0,0,0,0,-0.039,-0.0349,-0.0335,-0.0331,-0.03,-0.025,-0.0245,-0.0219,-0.018,-0.0176,-0.0114,-0.0097,-0.0058,-0.0013,-0.0027,0.0052,0.0069,0.0073,0.002,0.0017,0.0014,0.0009,0.002,0,0,0,0,0,-0.0401,-0.0397,-0.0352,-0.0352,-0.0339,-0.0295,-0.0279,-0.0253,-0.0211,-0.0194,-0.0145,-0.009,-0.0043,-0.0008,0.0034,0.0079,0.0117,0.01,0.0097,0.0094,0.0101,0.0153,0.0155,0.0133,0.0133,0.0133,0,0,-0.0424,-0.0397,-0.0398,-0.0361,-0.0336,-0.0319,-0.0284,-0.0265,-0.0245,-0.0185,-0.0149,-0.0107,-0.0037,0.0007,0.0032,0.0049,0.012,0.0096,0.0092,0.0101,0.0154,0.0157,0.0158,0.0134,0.0134,0.0133,0,0,-0.0456,-0.0437,-0.0441,-0.0415,-0.0378,-0.0346,-0.0344,-0.0295,-0.0267,-0.023,-0.0182,-0.0133,-0.0063,-0.0004,0.0033,0.0044,0.0091,0.0056,0.0054,0.0103,0.0105,0.0108,0.015,0.0156,0.0069,0.0069,0.0069,0,-0.0482,-0.0477,-0.0439,-0.0428,-0.0412,-0.0362,-0.0358,-0.0321,-0.0263,-0.0236,-0.0227,-0.0117,-0.0064,0.0009,0.0015,0.0038,0.0067,0.0056,0.0098,0.0102,0.0105,0.0148,0.0156,0.0066,0.0066,0.0067,0.0067,0,-0.0512,-0.0504,-0.0505,-0.0473,-0.045,-0.0442,-0.0386,-0.0359,-0.0324,-0.0278,-0.0215,-0.0145,-0.0074,-0.0048,-0.001,0.0048,0.006,0.0073,0.0101,0.0103,0.0148,0.0158,0.0062,0.0063,0.0064,0.0064,0,0,-0.0576,-0.0535,-0.0538,-0.053,-0.0475,-0.0463,-0.0424,-0.0372,-0.0345,-0.0283,-0.0241,-0.0151,-0.0112,-0.0066,-0.001,0.0046,0.0092,0.0069,0.0073,0.01,0.0194,0.0212,0.0225,0.0106,0.0108,0.0109,0.0212,0,-0.0612,-0.0617,-0.0575,-0.0576,-0.0573,-0.0508,-0.0477,-0.0419,-0.0362,-0.031,-0.0219,-0.0166,-0.0117,-0.0089,-0.0025,0.0056,0.0116,0.0063,0.0199,0.0203,0.021,0.0236,0.0194,0.0284,0.0222,0.0223,0.0225,0,-0.0651,-0.0648,-0.0661,-0.0624,-0.0617,-0.0605,-0.0549,-0.0512,-0.0412,-0.0364,-0.0283,-0.0216,-0.0118,-0.009,0.0065,0.0024,0.0107,0.0173,0.0179,0.0227,0.0239,0.0276,0.0304,0.0241,0.024,0.0238,0.0237,0,-0.0723,-0.0705,-0.0722,-0.0711,-0.066,-0.0651,-0.0625,-0.0536,-0.0502,-0.0402,-0.0367,-0.0243,-0.0184,-0.0069,0.008,0.0067,0.0244,0.0243,0.0344,0.0346,0.0356,0.0357,0.0358,0.0357,0.0357,0.0357,0.0357,0,-0.077,-0.0785,-0.0764,-0.0773,-0.0794,-0.0725,-0.0717,-0.0664,-0.0579,-0.0532,-0.0411,-0.0341,-0.0177,-0.005,0.0071,0.0243,0.0243,0.0355,0.0381,0.0333,0.033,0.033,0.0325,0.0361,0.036,0.0359,0.0358,0,-0.0838,-0.0822,-0.0848,-0.0827,-0.0828,-0.0848,-0.0804,-0.0784,-0.0691,-0.0629,-0.0601,-0.0417,-0.0231,-0.0056,0.015,0.0234,0.039,0.0454,0.0385,0.0402,0.0456,0.0447,0.0562,0.0564,0.0565,0.0566,0.0567,0,-0.0872,-0.0892,-0.0917,-0.0947,-0.0945,-0.0954,-0.0951,-0.0864,-0.083,-0.0661,-0.0636,-0.0433,-0.0271,0.0036,0.024,0.046,0.0473,0.0523,0.0499,0.0467,0.048,0.0469,0.0459,0.0485,0.0486,0.0486,0.0486,0,-0.0943,-0.0957,-0.0984,-0.1045,-0.1071,-0.1082,-0.1068,-0.1056,-0.0925,-0.0858,-0.0694,-0.0549,-0.0199,0.0057,0.0341,0.0454,0.0478,0.0534,0.0538,0.0434,0.0401,0.0412,0.0403,0.0488,0.0488,0.0487,0.0487,0.0487,-0.1005,-0.1053,-0.109,-0.1144,-0.1176,-0.1188,-0.1193,-0.1133,-0.1081,-0.0908,-0.0784,-0.0517,-0.0256,0.018,0.0378,0.0571,0.0558,0.057,0.0567,0.0564,0.0531,0.0502,0.06,0.0601,0.0601,0.0602,0.0602,0,-0.1062,-0.111,-0.1178,-0.1232,-0.1266,-0.1263,-0.1244,-0.1198,-0.1125,-0.0909,-0.0749,-0.0463,-0.0166,0.0167,0.0474,0.0606,0.0584,0.0626,0.0567,0.0563,0.056,0.0525,0.0595,0.0596,0.0596,0.0597,0,0,-0.1094,-0.1172,-0.1203,-0.1285,-0.1322,-0.1338,-0.1328,-0.1235,-0.107,-0.0852,-0.0628,-0.0435,-0.0079,0.0114,0.0299,0.049,0.0488,0.0495,0.0476,0.0379,0.0375,0.0495,0.0433,0,0,0,0,0]}],[{"header":{"parameterUnit":"m.s-1","parameterCategory":2,"la1":30.2991,"la2":30.254,"lo1":-89.0895,"lo2":-89.0444,"dy":0.0017,"dx":0.0017,"nx":28,"ny":28,"refTime":"2024-07-04T03:00:00:Z","depth":"4","parameterNumber":2,"parameterNumberName":"U-component_of_CURRENTS"},"data":[0,0,0,0,0,0,0,0,0,0,0,0,0,0,0,0,0,0,0,0,0,0,0,0,0,0,0,0,0,0,0,0,0,0,0,0,0,0,0,0,0,0,0,0,0,0,0,0,0,0,0,0,0,0,0,0,0,0,-0.167,-0.1671,0,-0.1717,-0.1717,-0.1718,-0.1744,-0.1744,-0.1744,-0.1744,-0.18,-0.1801,-0.1802,0,0,0,0,0,0,0,0,0,0,0,0,0,-0.1611,-0.1612,-0.167,-0.1671,-0.1672,-0.1717,-0.1717,-0.1718,-0.1744,-0.1744,-0.1744,-0.1745,-0.18,-0.1801,-0.1802,0,0,0,0,0,0,0,0,0,0,0,0,0,-0.1643,-0.1612,-0.167,-0.1692,-0.1694,-0.1717,-0.1717,-0.1718,-0.1744,-0.1744,-0.1744,-0.1745,-0.1799,-0.1801,-0.1803,-0.1805,0,0,-0.1808,-0.1809,0,0,0,0,0,0,0,0,-0.1641,-0.1645,-0.1688,-0.169,-0.1693,-0.1727,-0.1717,-0.1748,-0.1743,-0.1722,-0.1744,-0.1745,-0.1778,-0.1781,-0.1786,-0.1808,-0.181,-0.1808,-0.1809,-0.181,-0.1811,0,0,0,0,0,0,0,-0.1639,-0.1643,-0.1686,-0.1689,-0.1692,-0.1702,-0.1707,-0.1723,-0.1745,-0.1724,-0.1727,-0.1736,-0.1779,-0.1784,-0.1787,-0.1811,-0.1808,-0.181,-0.1811,-0.1812,-0.1872,-0.1873,0,0,0,0,0,0,-0.1637,-0.1641,-0.1685,-0.1688,-0.167,-0.1703,-0.1708,-0.1714,-0.1745,-0.1751,-0.1735,-0.1737,-0.178,-0.1785,-0.1789,-0.1854,-0.181,-0.1812,-0.1813,-0.1872,-0.1872,-0.1873,0,0,0,0,0,0,-0.1635,-0.164,-0.1683,-0.1668,-0.1674,-0.1704,-0.171,-0.1715,-0.1748,-0.1754,-0.1759,-0.1767,-0.1781,-0.1787,-0.1819,-0.1854,-0.1813,-0.1814,-0.1871,-0.1872,-0.1872,-0.1945,0,0,0,0,0,0,-0.1633,-0.1639,-0.1656,-0.1667,-0.1675,-0.1709,-0.171,-0.1715,-0.1752,-0.1755,-0.1783,-0.1786,-0.1782,-0.1817,-0.1821,-0.1856,-0.1816,-0.187,-0.1871,-0.1872,-0.1942,-0.1948,-0.1954,0,0,0,0,0,-0.1631,-0.1646,-0.1656,-0.1663,-0.1692,-0.171,-0.1715,-0.1735,-0.1753,-0.1768,-0.1786,-0.1787,-0.1826,-0.1819,-0.1824,-0.186,-0.187,-0.1871,-0.1872,-0.1939,-0.1947,-0.1953,0,0,0,0,0,0,-0.1635,-0.1651,-0.1662,-0.1684,-0.1703,-0.1715,-0.1737,-0.1754,-0.1781,-0.1793,-0.1799,-0.1804,-0.1843,-0.1836,-0.1829,-0.1876,-0.1846,-0.1848,-0.1896,-0.1903,-0.1908,-0.1905,-0.1817,0,0,0,0,0,-0.1643,-0.1657,-0.1674,-0.1696,-0.1707,-0.173,-0.1747,-0.1761,-0.1781,-0.1795,-0.1816,-0.1832,-0.1846,-0.1864,-0.187,-0.1905,-0.1881,-0.1926,-0.1932,-0.1937,-0.1936,-0.1932,-0.1937,-0.1877,-0.1877,-0.1877,0,0,-0.1653,-0.1664,-0.1675,-0.1698,-0.1716,-0.1741,-0.1741,-0.1774,-0.1804,-0.1797,-0.1852,-0.1857,-0.1858,-0.189,-0.1907,-0.1895,-0.1941,-0.1939,-0.1944,-0.1939,-0.1933,-0.1939,-0.1945,-0.1877,-0.1877,-0.1877,0,0,-0.1668,-0.169,-0.1704,-0.1723,-0.1754,-0.1767,-0.1784,-0.1813,-0.1838,-0.1883,-0.1882,-0.1907,-0.194,-0.1942,-0.1948,-0.1989,-0.1968,-0.1996,-0.2033,-0.203,-0.2035,-0.204,-0.2012,-0.2014,-0.2003,-0.2004,-0.2004,0,-0.1685,-0.1701,-0.1713,-0.1733,-0.1758,-0.1784,-0.1812,-0.184,-0.188,-0.1901,-0.191,-0.1954,-0.1962,-0.1992,-0.2006,-0.2005,-0.1989,-0.2013,-0.2039,-0.2043,-0.2046,-0.2017,-0.2017,-0.2007,-0.2007,-0.2007,-0.2006,0,-0.1697,-0.1728,-0.1741,-0.1775,-0.1802,-0.1831,-0.1867,-0.1905,-0.1945,-0.1966,-0.2014,-0.2022,-0.2042,-0.2055,-0.205,-0.2079,-0.2054,-0.2046,-0.2025,-0.2057,-0.2023,-0.2023,-0.2013,-0.2011,-0.201,-0.2009,0,0,-0.1684,-0.174,-0.1748,-0.1775,-0.1829,-0.1848,-0.1908,-0.1954,-0.1994,-0.2038,-0.2078,-0.2112,-0.2114,-0.2117,-0.2115,-0.2122,-0.2134,-0.2101,-0.21,-0.208,-0.2112,-0.1964,-0.1948,-0.2137,-0.2137,-0.2138,-0.2078,0,-0.1693,-0.1736,-0.1765,-0.1823,-0.1848,-0.1898,-0.195,-0.2,-0.2043,-0.2088,-0.2109,-0.2141,-0.2138,-0.2152,-0.2161,-0.214,-0.2136,-0.215,-0.2078,-0.2075,-0.1946,-0.1944,-0.2139,-0.2077,-0.2077,-0.2077,-0.2077,0,-0.1682,-0.1718,-0.1771,-0.1846,-0.1864,-0.1908,-0.1987,-0.2032,-0.2096,-0.2132,-0.2167,-0.2177,-0.2198,-0.2188,-0.2173,-0.2184,-0.2152,-0.2133,-0.213,-0.1964,-0.1925,-0.2039,-0.2075,-0.2075,-0.2075,-0.2075,-0.2075,0,-0.164,-0.1717,-0.1762,-0.1788,-0.1878,-0.1921,-0.197,-0.2044,-0.2078,-0.2149,-0.2172,-0.2206,-0.2209,-0.2198,-0.2157,-0.2172,-0.212,-0.2131,-0.1963,-0.1952,-0.2075,-0.2071,-0.2108,-0.2108,-0.2109,-0.2109,-0.2109,0,-0.1614,-0.1654,-0.1751,-0.1775,-0.1834,-0.1905,-0.1968,-0.2024,-0.2091,-0.2101,-0.218,-0.2174,-0.2213,-0.2185,-0.2158,-0.2038,-0.2114,-0.1954,-0.1924,-0.2104,-0.2105,-0.2073,-0.207,-0.2106,-0.2107,-0.2107,-0.2108,0,-0.1547,-0.1616,-0.1672,-0.1779,-0.1812,-0.185,-0.1947,-0.197,-0.2062,-0.2073,-0.209,-0.2148,-0.2101,-0.2104,-0.2067,-0.2005,-0.1932,-0.1869,-0.2041,-0.2023,-0.177,-0.1771,-0.1682,-0.1676,-0.1671,-0.1667,-0.1663,0,-0.1511,-0.1535,-0.1651,-0.1676,-0.1726,-0.1798,-0.1826,-0.1934,-0.1936,-0.2018,-0.1984,-0.1997,-0.2005,-0.183,-0.187,-0.1792,-0.1772,-0.1736,-0.1774,-0.1745,-0.1725,-0.1734,-0.1742,-0.1655,-0.1654,-0.1653,-0.1652,0,-0.1443,-0.1498,-0.1543,-0.1582,-0.1623,-0.1653,-0.1694,-0.1691,-0.1775,-0.189,-0.1817,-0.1794,-0.1734,-0.1706,-0.1648,-0.1604,-0.177,-0.1685,-0.1696,-0.1731,-0.1712,-0.17,-0.1713,-0.1635,-0.1637,-0.1639,-0.164,0,-0.1389,-0.1395,-0.1445,-0.1457,-0.1494,-0.1449,-0.1517,-0.1498,-0.1524,-0.162,-0.1588,-0.1617,-0.1687,-0.1604,-0.1554,-0.1493,-0.1482,-0.1454,-0.1477,-0.1497,-0.1466,-0.1418,-0.1206,0,0,0,0,0,-0.132,-0.1291,-0.1303,-0.129,-0.1308,-0.1311,-0.1379,-0.1446,-0.1544,-0.1435,-0.1506,-0.1442,-0.1387,-0.1423,-0.1316,-0.1468,-0.1484,-0.1342,-0.1465,-0.154,-0.156,-0.1542,0,0,0,0,0,0,-0.1268,-0.1278,-0.1253,-0.1119,-0.1069,-0.1054,-0.1088,-0.1169,-0.1125,-0.1253,-0.1224,-0.1339,-0.13,-0.1392,-0.1273,-0.1281,-0.1328,-0.1382,-0.1378,-0.1529,-0.1547,-0.1563,-0.1551,0,0,0,0,0]},{"header":{"parameterUnit":"m.s-1","parameterCategory":2,"la1":30.2991,"la2":30.254,"lo1":-89.0895,"lo2":-89.0444,"dy":0.0017,"dx":0.0017,"nx":28,"ny":28,"refTime":"2024-07-04T03:00:00:Z","depth":"4","parameterNumber":3,"parameterNumberName":"V-component_of_CURRENTS"},"data":[0,0,0,0,0,0,0,0,0,0,0,0,0,0,0,0,0,0,0,0,0,0,0,0,0,0,0,0,0,0,0,0,0,0,0,0,0,0,0,0,0,0,0,0,0,0,0,0,0,0,0,0,0,0,0,0,0,0,-0.0212,-0.0212,0,-0.0162,-0.0162,-0.0161,-0.0122,-0.0122,-0.0122,-0.0121,-0.0049,-0.0047,-0.0046,0,0,0,0,0,0,0,0,0,0,0,0,0,-0.0249,-0.0249,-0.0212,-0.0212,-0.0211,-0.0162,-0.0162,-0.0161,-0.0122,-0.0122,-0.0122,-0.0121,-0.0049,-0.0048,-0.0046,0,0,0,0,0,0,0,0,0,0,0,0,0,-0.0219,-0.0248,-0.0212,-0.0186,-0.0183,-0.0163,-0.0162,-0.0161,-0.0122,-0.0122,-0.0121,-0.0121,-0.005,-0.0048,-0.0045,-0.0041,0,0,-0.0038,-0.0037,0,0,0,0,0,0,0,0,-0.0221,-0.0218,-0.0191,-0.0188,-0.0185,-0.0148,-0.0148,-0.012,-0.0123,-0.0145,-0.0121,-0.0121,-0.0081,-0.0076,-0.0067,-0.0037,-0.0034,-0.0038,-0.0036,-0.0035,-0.0035,0,0,0,0,0,0,0,-0.0223,-0.022,-0.0192,-0.019,-0.0186,-0.0168,-0.0164,-0.0142,-0.0116,-0.0143,-0.014,-0.0135,-0.0079,-0.007,-0.0065,-0.0033,-0.0038,-0.0036,-0.0034,-0.0033,0.0003,0.0003,0,0,0,0,0,0,-0.0232,-0.0222,-0.0194,-0.0191,-0.0202,-0.0168,-0.0163,-0.016,-0.0116,-0.0109,-0.0136,-0.0134,-0.0074,-0.0068,-0.0063,-0.0033,-0.0035,-0.0033,-0.0032,0.0004,0.0003,0.0003,0,0,0,0,0,0,-0.0233,-0.023,-0.0196,-0.0205,-0.02,-0.0168,-0.0165,-0.016,-0.0151,-0.0111,-0.0104,-0.0134,-0.0074,-0.0066,-0.0047,-0.003,-0.0032,-0.003,0.0004,0.0003,0.0003,0.0013,0,0,0,0,0,0,-0.0234,-0.0231,-0.0236,-0.0206,-0.0199,-0.0187,-0.0166,-0.0159,-0.0149,-0.0146,-0.0107,-0.0099,-0.0073,-0.0051,-0.0044,-0.0027,-0.0028,0.0005,0.0004,0.0003,0.0013,0.0013,0.0012,0,0,0,0,0,-0.0236,-0.0242,-0.0237,-0.0233,-0.0206,-0.0187,-0.0182,-0.0158,-0.0149,-0.0148,-0.0123,-0.0101,-0.0052,-0.0049,-0.0042,-0.0023,0.0005,0.0004,0.0003,0.0013,0.0013,0.0012,0,0,0,0,0,0,-0.0263,-0.0238,-0.0231,-0.0231,-0.0214,-0.0181,-0.018,-0.0164,-0.0143,-0.0142,-0.0104,-0.0096,-0.0075,-0.006,-0.0058,-0.002,-0.0021,-0.002,-0.0015,-0.0016,-0.0016,-0.0011,-0.0026,0,0,0,0,0,-0.0272,-0.0272,-0.0245,-0.0247,-0.024,-0.0213,-0.0204,-0.0187,-0.0164,-0.0154,-0.0126,-0.0101,-0.0074,-0.0054,-0.0037,-0.0013,0.0004,0.0,-0.0,-0.0001,0.0006,0.0052,0.0057,-0.0001,-0.0001,-0.0001,0,0,-0.0288,-0.0272,-0.0275,-0.0253,-0.0239,-0.0226,-0.0206,-0.0196,-0.018,-0.015,-0.0127,-0.0106,-0.0073,-0.0045,-0.0034,-0.0027,0.0018,-0.0002,-0.0002,0.0005,0.0052,0.0058,0.0063,-0.0002,-0.0002,-0.0001,0,0,-0.0308,-0.0302,-0.0303,-0.0288,-0.0266,-0.0246,-0.0245,-0.0216,-0.0197,-0.0178,-0.0148,-0.0115,-0.0088,-0.0043,-0.002,-0.0016,0.0007,-0.0021,-0.0003,0.0042,0.0048,0.0053,0.0061,0.0067,-0.0011,-0.0011,-0.0011,0,-0.0327,-0.0323,-0.0303,-0.0293,-0.0283,-0.0256,-0.0251,-0.0227,-0.0194,-0.0173,-0.0175,-0.0109,-0.0079,-0.0018,-0.0014,-0.0011,-0.0002,0.0002,0.0044,0.005,0.0056,0.0063,0.007,-0.0011,-0.0011,-0.0011,-0.0011,0,-0.034,-0.0338,-0.0338,-0.0316,-0.0301,-0.0298,-0.0259,-0.0242,-0.0223,-0.019,-0.0144,-0.0101,-0.0058,-0.0041,-0.0021,0.0036,0.0021,0.0033,0.0053,0.0063,0.0068,0.0075,-0.001,-0.001,-0.001,-0.001,0,0,-0.0385,-0.0355,-0.0358,-0.0355,-0.0315,-0.0311,-0.0275,-0.0236,-0.0218,-0.0173,-0.0142,-0.0071,-0.0047,-0.0021,0.0014,0.0065,0.0111,0.0065,0.0067,0.0083,0.018,0.0129,0.0132,0.013,0.0132,0.0134,0.0161,0,-0.0405,-0.0407,-0.0375,-0.0376,-0.0375,-0.0331,-0.0304,-0.0261,-0.0223,-0.0189,-0.0114,-0.0083,-0.0038,-0.0027,0.0039,0.008,0.0132,0.01,0.0158,0.0159,0.0124,0.014,0.0139,0.0166,0.0167,0.0169,0.017,0,-0.0427,-0.0427,-0.0435,-0.0412,-0.0408,-0.0402,-0.0363,-0.0334,-0.0258,-0.0226,-0.0155,-0.0113,-0.0029,-0.0007,0.011,0.0082,0.0136,0.0176,0.0179,0.0137,0.0123,0.0157,0.0182,0.0181,0.018,0.018,0.0179,0,-0.0481,-0.0469,-0.0483,-0.0476,-0.0442,-0.0438,-0.0421,-0.0354,-0.0337,-0.0258,-0.0251,-0.0131,-0.011,-0.0,0.0083,0.0097,0.0188,0.0219,0.023,0.0225,0.026,0.0254,0.0314,0.0314,0.0314,0.0314,0.0314,0,-0.0509,-0.0526,-0.052,-0.053,-0.0558,-0.0503,-0.0509,-0.0469,-0.0413,-0.0405,-0.0289,-0.0269,-0.0108,-0.004,0.0065,0.0149,0.0178,0.0235,0.0239,0.0257,0.0251,0.0263,0.0257,0.0315,0.0315,0.0315,0.0314,0,-0.0559,-0.0552,-0.0582,-0.0578,-0.0586,-0.0611,-0.06,-0.0595,-0.0534,-0.0525,-0.0511,-0.0386,-0.0287,-0.0144,0.0009,0.0091,0.0196,0.0222,0.0195,0.0195,0.0211,0.0205,0.0254,0.0253,0.0252,0.0251,0.025,0,-0.058,-0.0601,-0.0646,-0.0685,-0.0692,-0.0717,-0.0731,-0.0673,-0.0662,-0.0603,-0.0607,-0.0513,-0.042,-0.0244,-0.008,0.0111,0.0147,0.0192,0.0256,0.0211,0.021,0.0205,0.0201,0.0248,0.0248,0.0247,0.0247,0,-0.0629,-0.0657,-0.0691,-0.0773,-0.0816,-0.0845,-0.0858,-0.0856,-0.0787,-0.0755,-0.0684,-0.0565,-0.046,-0.027,-0.0139,0.0008,0.0164,0.0182,0.0187,0.0247,0.0204,0.0203,0.02,0.0243,0.0244,0.0244,0.0244,0,-0.0683,-0.0731,-0.0787,-0.0853,-0.0916,-0.0942,-0.0936,-0.0908,-0.0881,-0.0792,-0.0785,-0.0631,-0.0533,-0.0328,-0.0206,-0.0072,-0.0009,0.0052,0.0065,0.0071,0.002,-0.0062,-0.0097,0,0,0,0,0,-0.0723,-0.0781,-0.0857,-0.0924,-0.0981,-0.1006,-0.1004,-0.0972,-0.0919,-0.0882,-0.0819,-0.0709,-0.0498,-0.0396,-0.0268,-0.022,0.0005,-0.0066,0.0079,0.0221,0.0226,0.0193,0,0,0,0,0,0,-0.0755,-0.0838,-0.087,-0.096,-0.101,-0.1057,-0.1052,-0.1015,-0.0961,-0.0899,-0.0777,-0.0703,-0.0488,-0.0587,-0.028,-0.0238,-0.0131,0.004,0.0043,0.0219,0.0223,0.0227,0.0195,0,0,0,0,0]}]]